map of TDX home
TDX - Airport
Location
City:  Trat, Trat, Thailand
Near (Alt.):Khao Saming
ICAO:VTBO
IATA:TDX

Details
Type:Airport (Aerodrome, Airfield)
Latitude:12°16'28"N (12.274572)
Longitude:102°19'08"E (102.318958)
Datum:WGS 1984
Elevation:105 ft (32 m)
Variation:0.59°W (WMM2015v2 magnetic declination)
-0.03° annual change
Runways:1
Longest:4950 × 150 ft (1509 × 45.5 m), paved

Time
Time Zone:UTC+7
Local Time:

Weather
METAR:VTBO 041100Z 22008KT 6000 VCTS FEW016CB 29/25 Q1012
TAF:VTBO 041100Z 0412/0512 23005KT 8000 FEW020
BECMG 0420/0422 00000KT 3000 BR
BECMG 0500/0502 20008KT 7000 NSW
TEMPO 0502/0506 VRB12KT 5000 TSRA FEW018CB SCT020 BKN100

Related Locations
Nearby:
Farthest:LIM: 12411 mi / 19973 km
Lima (Callao) [Jorge Chávez Intl], CAL, PE

Find:

   beyond  
but within

Other Information
Maps:
NOTAMs:
Links:
Sources:

  
  • flag of Thailand
  

Sectional Chart

Flight Planning
at skyvector.com

Satellite Image

Google Maps Satellite view

 

Copyright © 2004-2019 Karl L. Swartz. All rights reserved.
The Great Circle Mapper name and logo are trademarks of the Great Circle Mapper.
All other trademarks mentioned herein belong to their respective owners.
Please see credits for attibutions and further copyright information.

  Follow gcmap on Facebook Follow gcmap on Twitter GCmap on LinkedIn

hCard Microformat

Geo Microformat